Starlink 32767

operational
NORAD ID: 62601 Int'l Des: 2025-008 Owner: SPXS Country: US Constellation: starlink
LEOCIRCULAR

关于 Starlink 32767

正在加载描述...

实时位置

正在加载3D地球...

即将过境

高度历史

Altitude vs Time

uPlot chart will show altitude changes over time

两行轨道根数

1 62601U 25008Q 25306.23545718 .00052280 00000-0 18942-2 0 9994
2 62601 43.0021 277.5663 0000884 273.7468 86.3283 15.27609667 46133
Epoch: Nov 2, 2025 • Age: 37 hours

当前状态

高度 481.8 km
速度 7.63 km/s
星下点 12.71°N, 115.06°E
发射日期 Jan 13, 2025
运行时间 0.8 years
类型 internet

技术详情

分类 Payload
质量 730.00 kg
干质量 700.00 kg
总质量 730.00 kg
长度 0.30 m
直径 4.10 m
跨度 29.00 m
形状 Box + pan
制造商 SPXS
平台类型 Starlink V2M
阶段状态 In Orbit
所有者/国家 SPXS/US

大型星座

Loading constellations...